Middletown, OH

12:04 PM EDT on April 21, 2018 (GMT -0400)
Hook Field Municipal

Weather History for KMWO - March, 2014

Change the Weather History Date:

Friday, March 14, 2014

  Actual Average (KFFO) Record (KFFO)
Temperature  
Mean Temperature 47 °F -  
Max Temperature 62 °F 46 °F 77 °F (2012)
Min Temperature 32 °F 26 °F 18 °F (2017)
Degree Days  
Heating Degree Days 18    
Moisture  
Dew Point 22 °F    
Average Humidity 39    
Maximum Humidity 67    
Minimum Humidity 20    
Precipitation  
Precipitation 0.00 in - - ()
Sea Level Pressure  
Sea Level Pressure 29.92 in    
Wind  
Wind Speed 13 mph (SW)    
Max Wind Speed 37 mph    
Max Gust Speed 46 mph    
Visibility 10 miles    
Events Rain    
Averages and records for this station are not official NWS values.
T = Trace of Precipitation, MM = Missing Value Source: NWS Daily Summary

Daily Weather History Graph

Daily Weather History Graph

Search for Another Location

Airport or City:

Astronomy

Mar. 14, 2014 Rise Set
Actual Time 7:50 AM EDT 7:43 PM EDT
Civil Twilight 7:23 AM EDT 8:10 PM EDT
Nautical Twilight 6:52 AM EDT 8:41 PM EDT
Astronomical Twilight 6:21 AM EDT 9:13 PM EDT
Moon 6:05 PM EDT (3/14) 6:29 AM EDT (3/14)
Length of Visible Light 12h 46m
Length of Day
11h 52m
Waxing Gibbous, 96% of the Moon is Illuminated
Mar 14
Waxing Gibbous
Mar 16
Full
Mar 23
Last Quarter
Mar 30
New
Apr 7
First Quarter

Hourly Weather History & Observations

Time (EDT) Temp. Windchill Dew Point Humidity Pressure Visibility Wind Dir Wind Speed Gust Speed Precip Events Conditions
12:15 AM 35.1 °F 28.6 °F 12.7 °F 40% 30.10 in 10.0 mi SSW 8.1 mph - N/A   Clear
12:35 AM 35.1 °F 29.3 °F 13.6 °F 41% 30.09 in 10.0 mi SSW 6.9 mph - N/A   Clear
12:55 AM 35.1 °F 29.3 °F 14.5 °F 43% 30.08 in 10.0 mi SSW 6.9 mph - N/A   Clear
1:15 AM 35.1 °F 29.3 °F 14.5 °F 43% 30.08 in 10.0 mi SSW 6.9 mph - N/A   Clear
1:35 AM 34.7 °F 29.6 °F 15.4 °F 45% 30.08 in 10.0 mi SSW 5.8 mph - N/A   Clear
1:55 AM 33.8 °F 28.6 °F 15.1 °F 46% 30.07 in 10.0 mi SSW 5.8 mph - N/A   Clear
2:15 AM 32.5 °F 27.1 °F 14.9 °F 48% 30.07 in 10.0 mi SSW 5.8 mph - N/A   Clear
2:35 AM 32.9 °F 27.5 °F 15.1 °F 48% 30.07 in 10.0 mi SSW 5.8 mph - N/A   Clear
2:55 AM 32.7 °F 26.4 °F 15.8 °F 50% 30.06 in 10.0 mi SSW 6.9 mph - N/A   Clear
3:15 AM 32.9 °F 26.7 °F 16.0 °F 50% 30.06 in 10.0 mi SSW 6.9 mph - N/A   Clear
3:35 AM 35.1 °F 31.0 °F 17.4 °F 49% 30.05 in 10.0 mi South 4.6 mph - N/A   Clear
3:55 AM 32.5 °F 28.1 °F 16.7 °F 52% 30.04 in 10.0 mi South 4.6 mph - N/A   Clear
4:15 AM 32.5 °F 27.1 °F 16.7 °F 52% 30.03 in 10.0 mi South 5.8 mph - N/A   Clear
4:35 AM 32.5 °F 27.1 °F 16.7 °F 52% 30.03 in 10.0 mi South 5.8 mph - N/A   Clear
4:55 AM 32.5 °F 26.2 °F 17.6 °F 54% 30.02 in 10.0 mi SSW 6.9 mph - N/A   Clear
5:15 AM 33.8 °F 28.6 °F 18.0 °F 52% 30.01 in 10.0 mi South 5.8 mph - N/A   Clear
5:35 AM 35.1 °F 29.3 °F 18.7 °F 51% 30.01 in 10.0 mi South 6.9 mph - N/A   Clear
5:55 AM 35.1 °F 29.3 °F 18.9 °F 52% 30.00 in 10.0 mi South 6.9 mph - N/A   Clear
6:15 AM 35.1 °F 28.6 °F 19.4 °F 53% 30.00 in 10.0 mi SSW 8.1 mph - N/A   Clear
6:35 AM 35.1 °F 30.1 °F 19.4 °F 53% 30.00 in 10.0 mi SW 5.8 mph - N/A   Clear
6:55 AM 32.5 °F 29.3 °F 20.8 °F 62% 30.00 in 10.0 mi WSW 3.5 mph - N/A   Clear
7:15 AM 32.5 °F 28.1 °F 21.4 °F 64% 30.00 in 10.0 mi WSW 4.6 mph - N/A   Clear
7:35 AM 32.5 °F 26.2 °F 21.2 °F 63% 29.99 in 10.0 mi SW 6.9 mph - N/A   Clear
7:55 AM 35.1 °F 28.6 °F 22.3 °F 60% 29.99 in 10.0 mi SW 8.1 mph - N/A   Clear
8:15 AM 36.7 °F 30.5 °F 22.1 °F 56% 29.99 in 10.0 mi SW 8.1 mph - N/A   Clear
8:35 AM 37.6 °F 31.6 °F 22.8 °F 55% 30.00 in 10.0 mi SW 8.1 mph - N/A   Clear
8:55 AM 39.0 °F 32.8 °F 22.3 °F 51% 29.99 in 10.0 mi SSW 9.2 mph - N/A   Clear
9:15 AM 40.6 °F 33.8 °F 22.8 °F 49% 29.99 in 10.0 mi SSW 11.5 mph - N/A   Clear
9:35 AM 43.7 °F 36.9 °F 24.4 °F 47% 29.99 in 10.0 mi SW 13.8 mph - N/A   Clear
9:55 AM 47.1 °F - 25.9 °F 44% 29.99 in 10.0 mi SW 15.0 mph 20.7 mph N/A   Clear
10:15 AM 47.7 °F - 25.0 °F 41% 29.99 in 10.0 mi SW 17.3 mph 24.2 mph N/A   Clear
10:35 AM 47.7 °F - 24.3 °F 40% 29.98 in 10.0 mi SW 17.3 mph 26.5 mph N/A   Clear
10:55 AM 49.1 °F - 24.8 °F 39% 29.97 in 10.0 mi SW 18.4 mph 23.0 mph N/A   Clear
11:15 AM 50.5 °F - 25.3 °F 38% 29.96 in 10.0 mi SW 23.0 mph 29.9 mph N/A   Clear
11:35 AM 52.7 °F - 26.2 °F 36% 29.95 in 10.0 mi SW 21.9 mph 29.9 mph N/A   Clear
11:55 AM 52.7 °F - 24.8 °F 34% 29.94 in 10.0 mi SW 21.9 mph 27.6 mph N/A   Clear
12:15 PM 55.4 °F - 25.5 °F 32% 29.92 in 10.0 mi SW 25.3 mph 34.5 mph N/A   Clear
12:35 PM 55.4 °F - 25.0 °F 31% 29.90 in 10.0 mi SW 27.6 mph 34.5 mph N/A   Clear
12:55 PM 57.7 °F - 25.2 °F 29% 29.89 in 10.0 mi SW 23.0 mph 33.4 mph N/A   Clear
1:15 PM 57.7 °F - 25.0 °F 28% 29.88 in 10.0 mi SW 28.8 mph 35.7 mph N/A   Clear
1:35 PM 59.0 °F - 23.0 °F 25% 29.87 in 10.0 mi SSW 25.3 mph 39.1 mph N/A   Clear
1:55 PM 60.1 °F - 22.1 °F 23% 29.86 in 10.0 mi SW 33.4 mph 41.4 mph N/A   Clear
2:15 PM 60.1 °F - 22.8 °F 24% 29.83 in 10.0 mi SW 31.1 mph 43.7 mph N/A   Clear
2:35 PM 59.2 °F - 22.3 °F 24% 29.83 in 10.0 mi SW 33.4 mph 44.9 mph N/A   Clear
2:55 PM 60.6 °F - 21.6 °F 22% 29.81 in 10.0 mi SW 27.6 mph 42.6 mph N/A   Clear
3:15 PM 60.8 °F - 20.3 °F 21% 29.80 in 10.0 mi SW 28.8 mph 44.9 mph N/A   Clear
3:35 PM 62.6 °F - 20.1 °F 20% 29.79 in 10.0 mi SW 35.7 mph 42.6 mph N/A   Clear
3:55 PM 62.6 °F - 20.3 °F 20% 29.78 in 10.0 mi SW 28.8 mph 42.6 mph N/A   Clear
4:15 PM 60.8 °F - 19.2 °F 20% 29.77 in 10.0 mi SW 32.2 mph 46.0 mph N/A   Clear
4:35 PM 60.1 °F - 19.2 °F 21% 29.76 in 10.0 mi SW 23.0 mph 43.7 mph N/A   Scattered Clouds
4:55 PM 59.7 °F - 19.9 °F 21% 29.76 in 10.0 mi SW 36.8 mph 42.6 mph N/A   Scattered Clouds
5:15 PM 59.0 °F - 19.2 °F 21% 29.78 in 10.0 mi SW 28.8 mph 44.9 mph N/A   Scattered Clouds
5:35 PM 59.0 °F - 20.5 °F 23% 29.77 in 10.0 mi SW 26.5 mph 41.4 mph N/A   Scattered Clouds
5:55 PM 59.0 °F - 20.1 °F 22% 29.77 in 10.0 mi SW 24.2 mph 36.8 mph N/A   Mostly Cloudy
6:15 PM 59.0 °F - 21.6 °F 24% 29.77 in 10.0 mi SW 24.2 mph 34.5 mph N/A   Overcast
6:35 PM 57.7 °F - 22.3 °F 25% 29.75 in 10.0 mi SW 21.9 mph 32.2 mph N/A   Mostly Cloudy
6:55 PM 57.7 °F - 22.5 °F 26% 29.77 in 10.0 mi SW 25.3 mph 29.9 mph N/A   Scattered Clouds
7:15 PM 57.7 °F - 22.6 °F 26% 29.78 in 10.0 mi SW 19.6 mph 28.8 mph N/A   Mostly Cloudy
7:35 PM 57.7 °F - 23.5 °F 27% 29.79 in 10.0 mi SW 16.1 mph 26.5 mph N/A   Overcast
7:55 PM 57.7 °F - 23.9 °F 27% 29.80 in 10.0 mi SW 12.7 mph - N/A   Overcast
8:15 PM 57.7 °F - 23.7 °F 27% 29.80 in 10.0 mi WSW 16.1 mph 24.2 mph N/A   Overcast
8:35 PM 57.7 °F - 24.3 °F 28% 29.81 in 10.0 mi WSW 27.6 mph 34.5 mph N/A   Overcast
8:55 PM 57.7 °F - 26.2 °F 30% 29.81 in 10.0 mi WSW 20.7 mph 27.6 mph N/A   Overcast
9:15 PM 57.7 °F - 27.1 °F 31% 29.82 in 10.0 mi WSW 17.3 mph 28.8 mph N/A   Overcast
9:35 PM 57.7 °F - 28.2 °F 32% 29.82 in 10.0 mi WSW 20.7 mph 26.5 mph N/A   Overcast
9:55 PM 55.4 °F - 27.7 °F 35% 29.83 in 10.0 mi SW 16.1 mph 25.3 mph N/A   Scattered Clouds
10:15 PM 55.4 °F - 29.3 °F 37% 29.83 in 10.0 mi SW 15.0 mph - N/A   Clear
10:35 PM 55.4 °F - 30.6 °F 39% 29.83 in 10.0 mi SW 13.8 mph 19.6 mph N/A   Mostly Cloudy
10:55 PM 55.4 °F - 30.2 °F 38% 29.84 in 10.0 mi WSW 11.5 mph 18.4 mph N/A   Overcast
11:15 PM 53.6 °F - 36.1 °F 52% 29.85 in 7.0 mi West 20.7 mph 31.1 mph N/A Rain Rain
11:35 PM 52.7 °F - 40.8 °F 64% 29.89 in 10.0 mi West 16.1 mph 23.0 mph N/A Rain Light Rain
11:55 PM 50.2 °F - 39.7 °F 67% 29.90 in 10.0 mi WNW 10.4 mph - N/A Rain Light Rain